COSMOS 1275 DEB

Satellite information

Favourite Embed

Satellite Type and Status

DEBRISIN ORBIT

Key statistics

Satellite COSMOS 1275 DEB at a glance.

Uptime

16264

Days in orbit

Revolutions

≈ 14.3

Per day

Orbit

LEO

Low Earth Orbit

Inclination

82.9

Latest

Satellite identification and parameters

Extended collection of information and parameters for COSMOS 1275 DEB.

Object identification

Identified? True

Debris? True

Object name: COSMOS 1275 DEB

International designator: 1981-053BH

Object number (NORAD): 12713

Object ID (CCSDS): 12713

Country: COMMONWEALTH OF INDEPENDENT STATES (CIS)

Current information (Y/N): Y

RCS size: SMALL

Orbital parameters

Period: 100.637 minutes

Inclination: 82.9471 deg

SMA: 7166.923 km

Apoapsis: 800.978 km

Periapsis: 776.598 km

RAAN: 182.806 deg

Eccentricy: 0.00170087

Argument of periapsis: 350.7524 deg

Mean anomaly: 9.3348 deg

Mean motion: 14.30881445 rev/day

Mean motion (dot): 0.0000528 rev/day2

B* drag term: 0.0020026121 1/REarth

Two-line elements (TLE)

Creation date: Dec. 12, 2025, 10:14 a.m.

Reference frame: TEME

Reference center: EARTH

Epoch: Dec. 12, 2025, 6:25 a.m. UTC

TLE line 0: 0 COSMOS 1275 DEB

TLE line 1: 1 12713U 81053BH 25346.26777192 .00005280 00000-0 20026-2 0 9999

TLE line 2: 2 12713 82.9471 182.8060 0017009 350.7524 9.3348 14.30881445264248

Live tracking on map

Real-time ground track for satellite COSMOS 1275 DEB.

In-orbit conjunctions

A list of the most updated potential collisions computed for object COSMOS 1275 DEB.

Target Orbit TCA Probability of collision Miss distance Type
COSMOS 1624 LEO 2025-05-21 01:37:06 0.0008152935 805.0 (m) PAYLOAD
CZ-6A DEB LEO 2025-02-03 08:49:14 0.0002378872 376.0 (m) DEBRIS
NOAA 10 SSO 2024-12-08 07:29:03 0.0001617971 450.0 (m) PAYLOAD
NOAA 16 DEB SSO 2024-11-13 18:28:02 0.0002280237 870.0 (m) DEBRIS
FENGYUN 1C DEB SSO 2024-11-09 05:07:06 0.0004561912 209.0 (m) DEBRIS

Associated space launch

Navigation satellite providing location information for the Tsiklon-B navigation system

COSMOS 1275 DEB was lifted into orbit during the mission ‘Kosmos-3M | Parus 27’, on board a Kosmos-3M space rocket.

The launch took place on June 4, 1981, 3:41 p.m. from 132/2.

For more information about the launch, click the button.

Launch to space Kosmos-3M | Parus 27
Kosmos-3M | Parus 27

Agency: N/A

Status: Launch Successful

Launch date: June 4, 1981, 3:41 p.m. UTC

Rocket: Kosmos-3M

Launch pad: 132/2

Location: Plesetsk Cosmodrome, Russian Federation

...

Latest news about this satellite

There are no fresh news available about this satellite. Check back as we update our databases every day.


Newsletter sign-up

Weekly statistics, charts and insights to help you stay on top of the space industry.